Simultaneous Nadir Overpasses (SNOs) Predictions

Prediction of SNOs between METOP-B and TERRA Satellite Orbit:

Table of predicted SNOs for the next 14.0 days since TLE Epoch: 6/3/2023
Index Date (METOP-B) Time (METOP-B) Lat,Lon (METOP-B) SZA (METOP-B ) Date (TERRA) Time (TERRA) Lat,Lon (TERRA) SZA (TERRA ) Distance(km) Time Diff (sec)
1 06/04/2023 22:13:43 80.82,-120.97 59.87 06/04/2023 22:14:26 80.82,-120.97 59.89 0.12 43
2 06/04/2023 23:04:22 -80.86, 47.10 120.03 06/04/2023 23:03:47 -80.86, 47.16 120.04 1.18 35
3 06/07/2023 13:34:46 -80.73,-172.79 120.64 06/07/2023 13:36:00 -80.70,-172.74 120.63 3.43 74
4 06/07/2023 14:25:21 80.84, -3.57 59.63 06/07/2023 14:25:17 80.84, -3.47 59.64 1.86 4
5 06/10/2023 05:46:20 -80.83, -54.04 120.65 06/10/2023 05:46:47 -80.83, -54.03 120.64 0.11 27
6 06/10/2023 06:36:58 80.88, 114.12 59.47 06/10/2023 06:36:07 80.88, 114.20 59.46 1.49 51
7 06/12/2023 21:07:19 80.80,-104.88 59.08 06/12/2023 21:08:16 80.80,-104.77 59.11 2.01 57
8 06/12/2023 21:57:57 -80.86, 63.62 120.77 06/12/2023 21:57:37 -80.85, 63.52 120.79 1.87 20
9 06/15/2023 13:18:54 80.84, 13.04 59.05 06/15/2023 13:19:04 80.84, 12.90 59.03 2.73 10



Historial Predications of SNOs between METOP-B and TERRA
